tititudorancea.com
Station Historical Data
 
Daily Summary for October 23, 2017 Units:  Metric    English   Both
« Previous Day
Next Day »
Daily Weekly Monthly Yearly Custom
  Current: High: Low: Average:
Temperature: 12.2 °C 12.2 °C 9.1 °C 10.3 °C
Dew Point: 12 °C 12 °C 8.9 °C 10.2 °C
Humidity: 99 % 99 % 99 % 99 %
Wind Speed: 0 km/h 0 km/h 0 km/h 0 km/h
Wind Gust: 0 km/h 9.7 km/h - -
Wind:Calm - - North
Pressure: 1012.1 hPa 1012.8 hPa 1007.7 hPa -
Precipitation: 0.25 mm      
Historical Graphs
 
 
Ararat weather Find more about Weather in Ararat, AU


 



 


Tabular Data for October 23, 2017
Time Temperature Dew Point Pressure Wind Wind Speed Wind Gust Humidity Rainfall Rate (Hourly)
00:03 11.1 °C 10.9 °C 1007.7 hPa Calm     99 % 0 mm
00:08 11.1 °C 10.9 °C 1007.7 hPa Calm     99 % 0 mm
00:13 11 °C 10.8 °C 1007.7 hPa Calm     99 % 0 mm
00:18 11 °C 10.8 °C 1007.7 hPa Calm   9.7 km/h 99 % 0 mm
00:23 11 °C 10.8 °C 1007.7 hPa Calm   9.7 km/h 99 % 0 mm
00:24 11 °C 10.8 °C 1008 hPa Calm   9.7 km/h 99 % 0 mm
00:30 10.9 °C 10.7 °C 1008 hPa Calm     99 % 0 mm
00:35 10.9 °C 10.7 °C 1008 hPa Calm     99 % 0 mm
00:40 10.9 °C 10.7 °C 1008 hPa Calm     99 % 0 mm
00:45 10.9 °C 10.7 °C 1008 hPa Calm     99 % 0 mm
00:50 10.9 °C 10.7 °C 1008 hPa Calm     99 % 0 mm
00:55 10.8 °C 10.6 °C 1008 hPa Calm     99 % 0 mm
01:00 10.8 °C 10.6 °C 1008.4 hPa Calm     99 % 0 mm
01:05 10.8 °C 10.6 °C 1008.4 hPa Calm     99 % 0 mm
01:10 10.7 °C 10.6 °C 1008.4 hPa Calm     99 % 0 mm
01:15 10.7 °C 10.6 °C 1008.4 hPa Calm     99 % 0 mm
01:20 10.7 °C 10.6 °C 1008.4 hPa Calm     99 % 0 mm
01:25 10.7 °C 10.6 °C 1008.4 hPa Calm     99 % 0 mm
01:30 10.7 °C 10.6 °C 1008 hPa Calm     99 % 0 mm
01:35 10.7 °C 10.6 °C 1008.4 hPa Calm     99 % 0 mm
01:40 10.7 °C 10.6 °C 1008.4 hPa Calm     99 % 0 mm
01:50 10.6 °C 10.4 °C 1008.4 hPa Calm     99 % 0.25 mm
01:55 10.6 °C 10.4 °C 1008.4 hPa Calm     99 % 0.25 mm
02:00 10.6 °C 10.4 °C 1008 hPa Calm     99 % 0.25 mm
02:05 10.5 °C 10.3 °C 1008.4 hPa Calm     99 % 0.25 mm
02:10 10.4 °C 10.2 °C 1008.4 hPa Calm     99 % 0.25 mm
02:15 10.4 °C 10.2 °C 1008.4 hPa Calm     99 % 0.25 mm
02:20 10.4 °C 10.2 °C 1008.7 hPa Calm     99 % 0.25 mm
02:21 10.4 °C 10.2 °C 1008.7 hPa Calm     99 % 0.25 mm
02:26 10.3 °C 10.2 °C 1008.7 hPa Calm     99 % 0.25 mm
02:31 10.3 °C 10.2 °C 1008.4 hPa Calm     99 % 0.25 mm
02:36 10.3 °C 10.2 °C 1008.7 hPa Calm     99 % 0.25 mm
02:41 10.3 °C 10.2 °C 1009 hPa Calm     99 % 0.25 mm
02:46 10.3 °C 10.2 °C 1008.7 hPa Calm     99 % 0 mm
02:51 10.2 °C 10.1 °C 1008.7 hPa Calm     99 % 0 mm
02:56 10.2 °C 10.1 °C 1009 hPa Calm     99 % 0 mm
03:01 10.1 °C 9.9 °C 1009 hPa Calm     99 % 0 mm
03:06 10.1 °C 9.9 °C 1009 hPa Calm     99 % 0 mm
03:11 10.1 °C 9.9 °C 1009.4 hPa Calm     99 % 0 mm
03:16 10 °C 9.8 °C 1009.4 hPa Calm     99 % 0 mm
03:21 10 °C 9.8 °C 1009.4 hPa Calm     99 % 0 mm
03:26 10.1 °C 9.9 °C 1009.4 hPa Calm     99 % 0 mm
03:31 10.1 °C 9.9 °C 1009.4 hPa Calm     99 % 0 mm
03:36 10.1 °C 9.9 °C 1009.4 hPa Calm     99 % 0 mm
03:41 10.1 °C 9.9 °C 1009.7 hPa Calm     99 % 0 mm
03:46 10.1 °C 9.9 °C 1009.7 hPa Calm     99 % 0 mm
03:51 10 °C 9.8 °C 1009.7 hPa Calm     99 % 0 mm
03:56 10 °C 9.8 °C 1010 hPa Calm     99 % 0 mm
04:01 10 °C 9.8 °C 1010 hPa Calm     99 % 0 mm
04:06 9.9 °C 9.8 °C 1010 hPa Calm     99 % 0 mm
04:11 9.9 °C 9.8 °C 1009.7 hPa Calm     99 % 0 mm
04:16 9.9 °C 9.8 °C 1010 hPa Calm     99 % 0 mm
04:21 9.9 °C 9.8 °C 1010 hPa Calm   7.2 km/h 99 % 0 mm
04:26 9.9 °C 9.8 °C 1010 hPa Calm   7.2 km/h 99 % 0 mm
04:31 9.9 °C 9.8 °C 1010 hPa Calm   7.2 km/h 99 % 0 mm
04:36 9.9 °C 9.8 °C 1010.4 hPa Calm     99 % 0 mm
04:41 9.8 °C 9.7 °C 1010 hPa Calm     99 % 0 mm
04:46 9.8 °C 9.7 °C 1010 hPa Calm     99 % 0 mm
04:51 9.8 °C 9.7 °C 1010.4 hPa Calm     99 % 0 mm
04:56 9.8 °C 9.7 °C 1010.7 hPa Calm     99 % 0 mm
05:01 9.7 °C 9.6 °C 1010.7 hPa Calm     99 % 0 mm
05:06 9.7 °C 9.6 °C 1010.7 hPa Calm     99 % 0 mm
05:11 9.7 °C 9.6 °C 1010.7 hPa Calm     99 % 0 mm
05:16 9.5 °C 9.3 °C 1010.7 hPa Calm     99 % 0 mm
05:21 9.5 °C 9.3 °C 1010.7 hPa Calm     99 % 0 mm
05:26 9.5 °C 9.3 °C 1011.1 hPa Calm     99 % 0 mm
05:31 9.5 °C 9.3 °C 1011.4 hPa Calm     99 % 0 mm
05:36 9.5 °C 9.3 °C 1011.4 hPa Calm     99 % 0 mm
05:41 9.5 °C 9.3 °C 1011.4 hPa Calm     99 % 0 mm
05:46 9.5 °C 9.3 °C 1011.1 hPa Calm     99 % 0 mm
05:51 9.5 °C 9.3 °C 1011.1 hPa Calm     99 % 0 mm
05:56 9.5 °C 9.3 °C 1011.4 hPa Calm     99 % 0 mm
06:01 9.4 °C 9.3 °C 1011.1 hPa Calm     99 % 0 mm
06:06 9.4 °C 9.3 °C 1011.1 hPa Calm     99 % 0 mm
06:11 9.4 °C 9.3 °C 1011.1 hPa Calm     99 % 0 mm
06:16 9.5 °C 9.3 °C 1011.1 hPa Calm     99 % 0 mm
06:21 9.4 °C 9.3 °C 1011.1 hPa Calm     99 % 0 mm
06:26 9.4 °C 9.3 °C 1011.4 hPa Calm     99 % 0 mm
06:31 9.3 °C 9.2 °C 1011.4 hPa Calm     99 % 0 mm
06:36 9.3 °C 9.2 °C 1011.7 hPa Calm     99 % 0 mm
06:41 9.2 °C 9.1 °C 1011.4 hPa Calm     99 % 0 mm
06:46 9.2 °C 9.1 °C 1011.7 hPa Calm     99 % 0 mm
06:51 9.1 °C 8.9 °C 1011.7 hPa Calm     99 % 0 mm
06:57 9.2 °C 9.1 °C 1012.1 hPa Calm     99 % 0 mm
07:02 9.2 °C 9.1 °C 1012.1 hPa Calm     99 % 0 mm
07:07 9.2 °C 9.1 °C 1012.4 hPa Calm     99 % 0 mm
07:12 9.2 °C 9.1 °C 1012.1 hPa Calm     99 % 0 mm
07:17 9.3 °C 9.2 °C 1012.1 hPa Calm     99 % 0 mm
07:22 9.4 °C 9.3 °C 1012.1 hPa Calm     99 % 0 mm
07:27 9.6 °C 9.4 °C 1012.4 hPa Calm     99 % 0 mm
07:32 9.7 °C 9.6 °C 1012.4 hPa Calm     99 % 0 mm
07:37 9.9 °C 9.8 °C 1012.4 hPa Calm     99 % 0 mm
07:42 10.3 °C 10.2 °C 1012.4 hPa Calm     99 % 0 mm
07:47 10.5 °C 10.3 °C 1012.4 hPa Calm     99 % 0 mm
07:52 10.8 °C 10.6 °C 1012.8 hPa Calm     99 % 0 mm
07:57 10.8 °C 10.6 °C 1012.4 hPa Calm     99 % 0 mm
08:02 10.8 °C 10.6 °C 1012.1 hPa Calm     99 % 0 mm
08:07 11 °C 10.8 °C 1012.1 hPa Calm     99 % 0 mm
08:12 11 °C 10.8 °C 1012.1 hPa Calm     99 % 0 mm
08:14 11 °C 10.8 °C 1012.1 hPa Calm     99 % 0 mm
08:19 11 °C 10.8 °C 1011.7 hPa Calm     99 % 0 mm
08:24 11.2 °C 11 °C 1012.1 hPa Calm   1.1 km/h 99 % 0 mm
08:29 11.3 °C 11.1 °C 1012.1 hPa Calm   1.1 km/h 99 % 0 mm
08:34 11.2 °C 11 °C 1012.1 hPa Calm     99 % 0 mm
08:39 11.2 °C 11 °C 1012.4 hPa Calm     99 % 0 mm
08:44 11.2 °C 11 °C 1012.1 hPa Calm     99 % 0 mm
08:49 11.2 °C 11 °C 1012.1 hPa Calm     99 % 0 mm
08:54 11.3 °C 11.1 °C 1012.1 hPa Calm     99 % 0 mm
08:59 11.3 °C 11.1 °C 1012.1 hPa Calm     99 % 0 mm
09:04 11.3 °C 11.1 °C 1012.1 hPa Calm     99 % 0 mm
09:09 11.3 °C 11.1 °C 1011.7 hPa Calm     99 % 0 mm
09:14 11.4 °C 11.2 °C 1012.1 hPa Calm     99 % 0 mm
09:19 11.6 °C 11.4 °C 1012.1 hPa Calm     99 % 0 mm
09:24 11.7 °C 11.5 °C 1012.1 hPa Calm     99 % 0 mm
09:29 11.8 °C 11.7 °C 1012.4 hPa Calm     99 % 0 mm
09:34 12.1 °C 11.9 °C 1012.1 hPa Calm     99 % 0 mm
09:40 12.2 °C 12 °C 1012.1 hPa Calm     99 % 0 mm
Ararat Weather
Compliments of Weather Underground - 1 mb
Click here to send mail.


ABOUT

Live weather data from Ararat, Victoria, Australia, 3377
Data uploaded from Cumulus every 5 minutes to Weather Underground.
This site then downloads the raw data for formatting and display.
Metric and imperial data can be displayed. Graphs and historical data available.
Includes Sun and Moon times and rain image live from BOM.

Check out Ararat Weather on Facebook, Twitter and Google +

Help support ongoing costs by checking out the ads





Follow @AraratWeather